ATLAS 5 CENTAUR DEB, 44980

Orbit data source: Space-Track

ATLAS 5 CENTAUR DEB, 44980 is space debris in HEO originally from a launch on Wed, 17 Oct 2018 UTC launched from the Air Force Eastern Test Range (AFETR). Debris objects in space refer to the collection of defunct objects orbiting the Earth. Examples of debris include non-operational satellites, rocket bodies, and fragments generated from explosions, collisions, or faulty payload assembly.

Loading next visibility...
Identifier
44980, 2018-079BP
Orbit
HEO
Last TLE update
1 week ago
Origin
Flag of USUnited Launch Alliance/Lockheed Martin (US)
Manufacturer
ULA Decatur
Mission
Spacecraft
Bus & Motor
Unknown
Mass
Unknown
Launch date (UTC)
2018-10-17 (7 years ago)
Launch vehicle
Unknown
Launch site
Air Force Eastern Test Range (AFETR)
Object type
Payload
Rocket body
Debris
Shape & HBR
Unknown
Radar Cross Section
RCS unknown

Expand to show TLE details & history

TLE from 1 week ago
0 ATLAS 5 CENTAUR DEB
1 44980U 18079BP  25181.23282942 -.00000144  00000-0  00000-0 0  9999
2 44980  13.0945 348.4640 4542553  61.4720 336.8045  2.15835519 44259
Epoch: 2025-06-30T05:35Z
TLE epoch observation values (Epoch: 2025-06-30T05:35:16.461Z)
Latitude
0.00002°
Longitude
-13.87829°
Altitude
10,126.332 km
Speed
5.705 km/s
True Right ascension
23h 13m 56s
True Declination
0° 00' 00"
Sunlit
Object was in daylight at epoch
Visualization orbit readout
Latitude
-0.26604°
Longitude
166.15302°
Altitude
18,996.74 km
Speed
3.957 km/s
Apparent Right ascension
11h 46m 16s
Apparent Declination
-8° 21' 41"
Sunlit
Object is in daylight
Visualization observer readout
Local Sidereal Time
02:52:15
Azimuth
65.604° ENE
Elevation
-38°
Doppler factor
1
Orbital elements
Apogee altitude
30,406.504 km
Perigee altitude
7,426.195 km
Semi-major axis
25,294.486 km
Eccentricity
0.45426
Inclination
13.0945°
RAAN
348.464°
Arg. of periapsis
61.472°
True anomaly
Unknown
Mean anomaly
336.8045°
Eccentric anomaly
Unknown
Mean motion
0.53952 °/min
Orbital period
667.26 mins
BSTAR
0
Loading maneuver chart data...
Loading SW <> Apogee altitude chart data...

ATLAS 5 CENTAUR DEB Visibility forecast

Observer location: undefined°, undefined°

Span
Click to sort rows by Start time (UTC) header in descending order
Start Az.
Max El. time (UTC)
Max El. Az.
Max El.
End time (UTC)
End Az.
584 mins2025-07-10 01:02:34.490Z252.412° W2025-07-10 10:05:34.490Z169.897° S26.379°2025-07-10 10:46:34.490Z110.645° ESE
|